Location: Caltech
(34.1382°N, 118.1253°W)
Time: 02:40:57
(UTC-07:00)

Aureole 2 Rocket - Visible Passes

Search period start: 31 July 2016 00:00
Search period end: 10 August 2016 00:00
Orbit: 333 x 608 km, 73.9° (Epoch: 30 July)

Date Brightness Start Highest point End Pass type
(mag) Time Alt. Az. Time Alt. Az. Time Alt. Az.
05 Aug 5.1 05:30:27 10° SE 05:32:21 15° E 05:34:20 10° ENE visible
08 Aug 2.4 05:36:01 10° SSW 05:39:07 79° ESE 05:42:34 10° NNE visible
09 Aug 3.6 05:06:41 10° S 05:09:38 40° ESE 05:12:54 10° NNE visible
